Weather Roundup
Issued by NWS

Home | Current Version | Previous Version | Graphics & Text | Print | Product List | Glossary Off
Versions: 1 2 3 4 5 6 7 8 9 10 11 12 13 14 15 16 17 18 19 20 21 22 23 24 25 26 27 28 29 30 31 32 33 34 35 36 37 38 39 40 41 42 43 44 45 46 47 48 49 50

000
NZUS93 KARX 130510
HRRWXR

CURRENT HOURLY OBSERVATIONS ACROSS
MUCH OF THE UPPER MISSISSIPPI VALLEY
NATIONAL WEATHER SERVICE LA CROSSE WI
1100 PM CST TUE DEC 12 2017


...SOUTHEAST MINNESOTA...


CITY           SKY/WX    TMP DP  RH WIND       PRES   REMARKS
ROCHESTER      PTCLDY    26  21  81 S17       29.68F WCI  13
ROCHESTER/MAYO MOCLDY    28  22  76 S15G21    29.69F WCI  17
WINONA         CLOUDY    28  19  69 SE7       29.74F WCI  21
AUSTIN         CLOUDY    27  21  80 S8        29.70F WCI  18
ALBERT LEA     CLOUDY    30  21  69 S8        29.69F WCI  23
DODGE CENTER   CLOUDY    27  21  80 S15       29.67F WCI  15
PRESTON        CLOUDY    27  20  75 SW16      29.71F WCI  14
OWATONNA       CLOUDY    30  25  80 S15       29.66F WCI  19
FARIBAULT      CLOUDY    28  25  86 S8        29.65F WCI  20
$$

...ELSEWHERE IN MINNESOTA...


CITY           SKY/WX    TMP DP  RH WIND       PRES   REMARKS
MINNEAPOLIS    CLOUDY    26  23  88 SE7       29.63F WCI  18
INTNL FALLS    CLOUDY    13   9  84 SE10      29.54F WCI   0
DULUTH         CLOUDY    12  10  92 SE10      29.61F WCI  -1
RED WING       CLOUDY    27  19  74 SE6       29.67F WCI  20
REDWOOD FALLS  CLOUDY    30  25  81 S7        29.58F WCI  23
MANKATO        CLOUDY    29  25  85 S9        29.64F WCI  20
WORTHINGTON    CLOUDY    31  25  78 SW15      29.62F WCI  20
FAIRMONT       CLOUDY    28  24  85 S15       29.64F WCI  16
$$

...SOUTHWEST WISCONSIN...


CITY           SKY/WX    TMP DP  RH WIND       PRES   REMARKS
LA CROSSE      CLOUDY    25  14  63 S12       29.78F WCI  14
PRAIRIE DU CHI CLOUDY    28  13  54 CALM      29.82F
BOSCOBEL       CLOUDY    26  11  52 S5        29.84F WCI  20
LONE ROCK      CLOUDY    21  13  71 E5        29.85F WCI  15
PLATTEVILLE    CLOUDY    24  14  65 S8        29.84F WCI  15
FORT MC COY    CLOUDY    22  13  67 S3        29.79F
CAMP DOUGLAS   CLOUDY    19  12  73 SE7       29.80F WCI  10
MAUSTON-NEW LI CLOUDY    19  12  72 SE5       29.80F WCI  13
VIROQUA        CLOUDY    21  14  73 S8        29.78F WCI  12
WIS DELLS      CLOUDY    19  10  68 S6        29.83F WCI  11
$$

...ELSEWHERE IN WISCONSIN...


CITY           SKY/WX    TMP DP  RH WIND       PRES   REMARKS
MILWAUKEE      CLOUDY    20   3  48 W6        29.91F WCI  12
MADISON        FLURRIES  20   9  62 S8        29.87F WCI  10
GREEN BAY      CLOUDY    16   3  56 SW3       29.87F
EAU CLAIRE     CLOUDY    18  11  74 SE8       29.72F WCI   8
BLACK RVR FLS  CLOUDY    19  10  68 SE3       29.77F
MEDFORD        LGT SNOW  11   9  89 SE6       29.74F WCI   2
WAUSAU         LGT SNOW  12   7  80 S6        29.78F WCI   3
WIS RAPIDS     CLOUDY    15   8  73 SE6       29.83F WCI   6
MARSHFIELD     CLOUDY    13   9  84 SE8       29.75F WCI   2
RICE LAKE      CLOUDY    15  11  85 SE12      29.71F WCI   2
$$

...NORTHEAST IOWA...


CITY           SKY/WX    TMP DP  RH WIND       PRES   REMARKS
WATERLOO       PTCLDY    27  17  66 S10       29.80F WCI  17
DUBUQUE        CLOUDY    24  13  62 S10       29.84F WCI  14
DECORAH        CLOUDY    27  18  69 SW12G17   29.75F WCI  16
MASON CITY     CLOUDY    29  22  75 S13       29.72F WCI  19
CHARLES CITY   CLOUDY    28  21  74 S12       29.76F WCI  18
OELWEIN        CLOUDY    27  18  69 S10       29.81F WCI  17
$$

...ELSEWHERE IN IOWA...


CITY           SKY/WX    TMP DP  RH WIND       PRES   REMARKS
DES MOINES     CLEAR     28  20  71 S10       29.83F WCI  19
IOWA CITY      CLOUDY    27   9  46 S6        29.91F WCI  20
FORT DODGE     CLOUDY    27  22  81 S12       29.74F WCI  17
MARSHALLTOWN   PTCLDY    30  21  69 SW13      29.81F WCI  20
CEDAR RAPIDS   MOCLDY    25  11  55 S10       29.85F WCI  15
$$

...NORTHERN ILLINOIS...


CITY           SKY/WX    TMP DP  RH WIND       PRES   REMARKS
CHICAGO-OHARE  CLOUDY    21   9  59 SW6       29.94F WCI  13
CHICAGO-MIDWAY CLOUDY    22   7  52 W8        29.96F WCI  12
MOLINE         CLOUDY    27   5  39 SW6       29.91F WCI  20
ROCKFORD       FLURRIES  21  12  68 S6        29.92F WCI  13
PEORIA         CLOUDY    21   8  57 S5        29.98F WCI  15
$$

NOTE: "FAIR" INDICATES FEW OR NO CLOUDS BELOW 12,000 FEET WITH NO
SIGNIFICANT WEATHER AND/OR OBSTRUCTIONS TO VISIBILITY. WIND
SPEEDS ARE IN MILES-PER-HOUR.




USA.gov is the U.S. government's official web portal to all federal, state and local government web resources and services.